Location: Asheville, NC
(35.6000°N, 82.5500°W)
Time: 13:47:22
(UTC-04:00)

Vanguard 1 Rocket - Pass Details

Date: 08 March 2018
Orbit: 653 x 4224 km, 34.3° (Epoch: 18 June)

Event Time Altitude Azimuth Distance (km) Brightness Sun altitude
Rises 00:54:05 0° 285° (WNW) 6,531 11.8 -59.1°
Reaches altitude 10° 00:57:46 10° 282° (WNW) 5,888 11.5 -59.1°
Enters shadow 01:02:00 23° 278° (W) 5,254 11.1 -58.9°
Exits shadow 01:38:46 20° 137° (SE) 6,404 11.4 -56.5°
Drops below altitude 10° 01:43:29 10° 134° (SE) 7,084 11.8 -56.1°
Sets 01:48:33 0° 131° (SE) 7,842 12.1 -55.6°
